When you browse on this site, cookies collect data to enhance your experience and personalize the content and advertising you see.
Visit our Privacy Policy to learn more. By continuing to use the site, you agree to this use of cookies and data.
  • în România
  • Lista ţărilor
  • Pe 7 zile
  • Temperatura apei
  • Hartă satelitară
  • Meteo pe hartă
  • Widget-uri
  • user-avatar
    Intrare

    Meteo pe oră la Santa Fe

    Astăzi, 24 Iunie, Luni

    Timp Temperatura Precipitaţii Vânt Presiune Umiditate
    00:00 +18°C° 0 mm 2 m/s 755 mmHg 93%
    01:00 +18°C° 0 mm 2 m/s 755 mmHg 93%
    02:00 +17°C° 0 mm 2 m/s 756 mmHg 94%
    03:00 +17°C° 0 mm 2 m/s 755 mmHg 95%
    04:00 +17°C° 0 mm 2 m/s 754 mmHg 96%
    05:00 +17°C° 0 mm 2 m/s 754 mmHg 97%
    06:00 +17°C° 0 mm 2 m/s 754 mmHg 97%
    07:00 +18°C° 0 mm 2 m/s 754 mmHg 96%
    08:00 +18°C° 0 mm 3 m/s 754 mmHg 96%
    09:00 +19°C° 0 mm 3 m/s 753 mmHg 91%
    10:00 +21°C° 0 mm 3 m/s 752 mmHg 85%
    11:00 +22°C° 0 mm 3 m/s 752 mmHg 80%
    12:00 +24°C° 0 mm 3 m/s 751 mmHg 76%
    13:00 +25°C° 0 mm 4 m/s 750 mmHg 72%
    14:00 +25°C° 0 mm 4 m/s 749 mmHg 67%
    15:00 +23°C° 0 mm 4 m/s 748 mmHg 72%
    16:00 +22°C° 0 mm 3 m/s 747 mmHg 76%
    17:00 +21°C° 0 mm 2 m/s 747 mmHg 80%
    18:00 +22°C° 0 mm 1 m/s 747 mmHg 81%
    19:00 +22°C° 0 mm 1 m/s 748 mmHg 82%
    20:00 +22°C° 0 mm 1 m/s 748 mmHg 82%
    21:00 +20°C° 0 mm 2 m/s 748 mmHg 85%
    22:00 +20°C° 0 mm 2 m/s 748 mmHg 87%
    23:00 +19°C° 0 mm 3 m/s 748 mmHg 90%

    Mâine, 25 Iunie, Marţi

    Timp Temperatura Precipitaţii Vânt Presiune Umiditate
    00:00 +19°C° 0.2 mm 5 m/s 749 mmHg 87%
    01:00 +17°C° 0.2 mm 7 m/s 750 mmHg 85%
    02:00 +17°C° 0.2 mm 9 m/s 751 mmHg 83%
    03:00 +15°C° 0.3 mm 9 m/s 752 mmHg 77%
    04:00 +12°C° 0.3 mm 9 m/s 754 mmHg 71%
    05:00 +9°C° 0.3 mm 10 m/s 755 mmHg 66%
    06:00 +10°C° 0 mm 9 m/s 756 mmHg 63%
    07:00 +9°C° 0 mm 8 m/s 758 mmHg 60%
    08:00 +7°C° 0 mm 8 m/s 759 mmHg 57%
    09:00 +9°C° 0 mm 8 m/s 759 mmHg 54%
    10:00 +9°C° 0 mm 8 m/s 760 mmHg 51%
    11:00 +10°C° 0 mm 8 m/s 761 mmHg 48%
    12:00 +10°C° 0 mm 7 m/s 761 mmHg 45%
    13:00 +11°C° 0 mm 7 m/s 761 mmHg 42%
    14:00 +11°C° 0 mm 7 m/s 761 mmHg 39%
    15:00 +10°C° 0 mm 6 m/s 761 mmHg 42%
    16:00 +9°C° 0 mm 5 m/s 761 mmHg 45%
    17:00 +9°C° 0 mm 3 m/s 761 mmHg 48%
    18:00 +9°C° 0 mm 3 m/s 762 mmHg 49%
    19:00 +8°C° 0 mm 2 m/s 762 mmHg 50%
    20:00 +7°C° 0 mm 2 m/s 762 mmHg 51%
    21:00 +7°C° 0 mm 2 m/s 762 mmHg 51%
    22:00 +7°C° 0 mm 2 m/s 762 mmHg 51%
    23:00 +6°C° 0 mm 2 m/s 762 mmHg 51%

    Poimâine, 26 Iunie, Miercuri

    Timp Temperatura Precipitaţii Vânt Presiune Umiditate
    00:00 +6°C° 0 mm 2 m/s 762 mmHg 51%
    01:00 +6°C° 0 mm 2 m/s 762 mmHg 51%
    02:00 +5°C° 0 mm 2 m/s 761 mmHg 51%
    03:00 +5°C° 0 mm 2 m/s 761 mmHg 51%
    04:00 +5°C° 0 mm 2 m/s 761 mmHg 50%
    05:00 +6°C° 0 mm 1 m/s 761 mmHg 50%
    06:00 +6°C° 0 mm 1 m/s 761 mmHg 51%
    07:00 +7°C° 0 mm 1 m/s 761 mmHg 52%
    08:00 +7°C° 0 mm 1 m/s 761 mmHg 53%
    09:00 +8°C° 0 mm 2 m/s 761 mmHg 50%
    10:00 +10°C° 0 mm 2 m/s 761 mmHg 47%
    11:00 +11°C° 0 mm 3 m/s 761 mmHg 43%
    12:00 +12°C° 0 mm 3 m/s 760 mmHg 43%
    13:00 +12°C° 0 mm 4 m/s 759 mmHg 43%
    14:00 +13°C° 0 mm 4 m/s 759 mmHg 43%
    15:00 +12°C° 0 mm 4 m/s 758 mmHg 48%
    16:00 +11°C° 0 mm 4 m/s 758 mmHg 54%
    17:00 +10°C° 0 mm 3 m/s 758 mmHg 59%
    18:00 +9°C° 0 mm 3 m/s 758 mmHg 61%
    19:00 +8°C° 0 mm 3 m/s 758 mmHg 63%
    20:00 +7°C° 0 mm 3 m/s 758 mmHg 65%
    21:00 +7°C° 0 mm 3 m/s 758 mmHg 66%
    22:00 +7°C° 0 mm 3 m/s 758 mmHg 67%
    23:00 +7°C° 0 mm 3 m/s 758 mmHg 68%

    27 Iunie, Joi

    Timp Temperatura Precipitaţii Vânt Presiune Umiditate
    00:00 +5°C° 0 mm 3 m/s 758 mmHg 69%
    01:00 +5°C° 0 mm 4 m/s 757 mmHg 70%
    02:00 +5°C° 0 mm 4 m/s 757 mmHg 70%
    03:00 +5°C° 0 mm 4 m/s 757 mmHg 70%
    04:00 +5°C° 0 mm 4 m/s 756 mmHg 71%
    05:00 +4°C° 0 mm 4 m/s 756 mmHg 71%
    06:00 +5°C° 0 mm 4 m/s 756 mmHg 72%
    07:00 +5°C° 0 mm 4 m/s 756 mmHg 72%
    08:00 +5°C° 0 mm 5 m/s 756 mmHg 72%
    09:00 +7°C° 0 mm 5 m/s 756 mmHg 68%
    10:00 +9°C° 0 mm 5 m/s 756 mmHg 63%
    11:00 +12°C° 0 mm 5 m/s 756 mmHg 59%
    12:00 +13°C° 0 mm 5 m/s 755 mmHg 57%
    13:00 +14°C° 0 mm 4 m/s 754 mmHg 56%
    14:00 +15°C° 0 mm 4 m/s 753 mmHg 55%
    15:00 +14°C° 0 mm 4 m/s 753 mmHg 60%
    16:00 +13°C° 0 mm 3 m/s 753 mmHg 65%
    17:00 +12°C° 0 mm 3 m/s 752 mmHg 71%
    18:00 +12°C° 0 mm 3 m/s 752 mmHg 74%
    19:00 +11°C° 0 mm 3 m/s 752 mmHg 78%
    20:00 +11°C° 0 mm 3 m/s 753 mmHg 82%
    21:00 +11°C° 0 mm 3 m/s 752 mmHg 86%
    22:00 +11°C° 0 mm 3 m/s 752 mmHg 90%
    23:00 +11°C° 0 mm 3 m/s 752 mmHg 94%

    28 Iunie, Vineri

    Timp Temperatura Precipitaţii Vânt Presiune Umiditate
    00:00 +11°C° 0 mm 3 m/s 751 mmHg 94%
    01:00 +12°C° 0 mm 4 m/s 751 mmHg 94%
    02:00 +12°C° 0 mm 4 m/s 750 mmHg 95%
    03:00 +13°C° 0 mm 4 m/s 750 mmHg 95%
    04:00 +13°C° 0 mm 4 m/s 749 mmHg 95%
    05:00 +14°C° 0 mm 4 m/s 749 mmHg 95%
    06:00 +14°C° 0 mm 4 m/s 749 mmHg 96%
    07:00 +14°C° 0 mm 3 m/s 749 mmHg 96%
    08:00 +16°C° 0 mm 3 m/s 749 mmHg 97%
    09:00 +17°C° 0 mm 3 m/s 749 mmHg 93%
    10:00 +19°C° 0 mm 4 m/s 748 mmHg 89%
    11:00 +20°C° 0 mm 4 m/s 748 mmHg 84%
    12:00 +21°C° 0 mm 3 m/s 748 mmHg 82%
    13:00 +22°C° 0 mm 3 m/s 747 mmHg 80%
    14:00 +24°C° 0 mm 2 m/s 747 mmHg 78%
    15:00 +23°C° 0 mm 2 m/s 747 mmHg 81%
    16:00 +22°C° 0 mm 1 m/s 747 mmHg 84%
    17:00 +22°C° 0 mm 1 m/s 747 mmHg 87%
    18:00 +21°C° 0 mm 1 m/s 748 mmHg 88%
    19:00 +20°C° 0 mm 1 m/s 749 mmHg 89%
    20:00 +20°C° 0 mm 1 m/s 749 mmHg 91%
    21:00 +18°C° 0 mm 3 m/s 750 mmHg 88%
    22:00 +17°C° 0 mm 4 m/s 751 mmHg 85%
    23:00 +16°C° 0 mm 5 m/s 752 mmHg 82%

    29 Iunie, Sâmbătă

    Timp Temperatura Precipitaţii Vânt Presiune Umiditate
    00:00 +15°C° 0 mm 6 m/s 753 mmHg 82%
    01:00 +14°C° 0 mm 6 m/s 754 mmHg 82%
    02:00 +11°C° 0 mm 7 m/s 754 mmHg 81%
    03:00 +11°C° 0 mm 6 m/s 755 mmHg 76%
    04:00 +10°C° 0 mm 5 m/s 756 mmHg 71%
    05:00 +9°C° 0 mm 5 m/s 757 mmHg 66%
    06:00 +9°C° 0 mm 5 m/s 758 mmHg 65%
    07:00 +8°C° 0 mm 5 m/s 759 mmHg 65%
    08:00 +8°C° 0 mm 5 m/s 760 mmHg 65%
    09:00 +9°C° 0 mm 6 m/s 760 mmHg 59%
    10:00 +10°C° 0 mm 7 m/s 761 mmHg 52%
    11:00 +12°C° 0 mm 7 m/s 762 mmHg 46%
    12:00 +12°C° 0 mm 7 m/s 762 mmHg 43%
    13:00 +12°C° 0 mm 8 m/s 762 mmHg 40%
    14:00 +12°C° 0 mm 8 m/s 762 mmHg 37%
    15:00 +11°C° 0 mm 6 m/s 762 mmHg 41%
    16:00 +10°C° 0 mm 5 m/s 763 mmHg 44%
    17:00 +10°C° 0 mm 4 m/s 763 mmHg 48%
    18:00 +8°C° 0 mm 4 m/s 764 mmHg 47%
    19:00 +8°C° 0 mm 3 m/s 764 mmHg 46%
    20:00 +7°C° 0 mm 3 m/s 765 mmHg 45%
    21:00 +7°C° 0 mm 3 m/s 765 mmHg 47%
    22:00 +5°C° 0 mm 4 m/s 766 mmHg 49%
    23:00 +5°C° 0 mm 4 m/s 766 mmHg 51%
    Arată mai mult